CZ-6A DEB, 61296

Orbit data source: Space-Track

CZ-6A DEB, 61296 is space debris in LEO originally from a launch on Tue, 06 Aug 2024 UTC launched from the Taiyaun Space Center, China (TSC). Debris objects in space refer to the collection of defunct objects orbiting the Earth. Examples of debris include non-operational satellites, rocket bodies, and fragments generated from explosions, collisions, or faulty payload assembly.

Loading next visibility...
Identifier
61296, 2024-140TH
Orbit
LEO
Country
Flag of CNCN / PRC
Related business
Manufacturer
SAST
Mission
Spacecraft
Bus & Motor
Unknown
Mass
Unknown
Launch date (UTC)
2024-08-06 (2 years ago)
Launch vehicle
Unknown
Launch site
Taiyaun Space Center, China (TSC)
Object type
Payload
Rocket body
Debris
Shape & HBR
Unknown shape, 0.1 m
Radar Cross Section
Medium (>0.1 m² and <1 m²)

Expand to show TLE details & history
Last TLE update: 14 hours ago

TLE from 14 hours ago
0 CZ-6A DEB
1 61296U 24140TH  26171.26285468  .00001376  00000-0  58179-3 0  9993
2 61296  89.0818 280.4557 0035663 126.9456 233.5011 14.24708050 94017
Epoch: 2026-06-20T06:18Z
TLE epoch observation values (Epoch: 2026-06-20T06:18:30.644Z)
Latitude
-0.00011°
Longitude
-82.65198°
Altitude
827.844 km
Speed
7.431 km/s
True Right ascension
18h 41m 49s
True Declination
0° 00' 00"
Sunlit
Object was in full shadow at epoch
Visualization orbit readout
Latitude
Unknown
Longitude
Unknown
Altitude
Unknown
Speed
Unknown
Apparent Right ascension
Unknown
Apparent Declination
Unknown
Sunlit
N/A
Visualization observer readout
Local Sidereal Time
07:23:59
Azimuth
Unknown
Elevation
Unknown
Doppler factor
Unknown
Orbital elements
Apogee altitude
832.041 km
Perigee altitude
780.796 km
Semi-major axis
7,184.555 km
Eccentricity
0.00357
Inclination
89.0818°
RAAN
280.4557°
Arg. of periapsis
126.9456°
True anomaly
233.17346°
Mean anomaly
233.5011°
Eccentric anomaly
233.33719°
Mean motion
3.56405 °/min
Orbital period
101.01 mins
BSTAR
0.00058179
Loading maneuver chart data...
Computing Atmospheric mass density...
Loading historical data...
Loading historical data...
Loading historical data...
Loading historical data...
Loading historical data...
Loading historical data...
Loading historical data...

Documentation

Showing up to 5 results
|